Bartow, Florida, United States (33830)
Lat: 27.90N, Lon: 81.84W
Wx Zone: FLZ052
Local Info
Past Weather Observations for Friday, January 23, 2015

NOTE: This archive is for the closest National Weather Service station to Bartow. Information may differ from the station used for current weather conditions.

Click here for Long-term Archive

Time Weather Temperature Dewpoint Humidity Pressure Winds Precip Visibility
23:55
Mostly Cloudy
Light Rain
70°F / 21°C 64°F / 18°C 83% 29.95 in
(1014 mb)
S 11.5 mph
(S 19 kph)
- 10SM
23:35
Mostly Cloudy
72°F / 22°C 64°F / 18°C 78% 29.95 in
(1014 mb)
S 11.5 mph
(S 19 kph)
- 10SM
23:15
Mostly Cloudy
72°F / 22°C 64°F / 18°C 78% 29.95 in
(1014 mb)
S 13.8 mph
(S 22 kph)
- 10SM
22:55
Mostly Cloudy
72°F / 22°C 64°F / 18°C 78% 29.95 in
(1014 mb)
S 12.7 mph
(S 20 kph)
- 10SM
22:35
Mostly Cloudy
72°F / 22°C 64°F / 18°C 78% 29.98 in
(1015 mb)
S 12.7 mph
(S 20 kph)
- 10SM
22:15
Mostly Cloudy
72°F / 22°C 64°F / 18°C 78% 29.98 in
(1015 mb)
S 12.7 mph
(S 20 kph)
- 10SM
21:55
Partly Cloudy
72°F / 22°C 64°F / 18°C 78% 29.95 in
(1014 mb)
S 13.8 mph
(S 22 kph)
- 10SM
21:35
Partly Cloudy
72°F / 22°C 64°F / 18°C 78% 29.95 in
(1014 mb)
S 12.7 mph
(S 20 kph)
- 10SM
21:15
Clear
72°F / 22°C 64°F / 18°C 78% 29.95 in
(1014 mb)
SSE 10.4 mph
(SSE 17 kph)
- 10SM
20:55
Partly Cloudy
72°F / 22°C 64°F / 18°C 78% 29.98 in
(1015 mb)
SSE 8.1 mph
(SSE 13 kph)
- 10SM
20:35
Mostly Cloudy
72°F / 22°C 64°F / 18°C 78% 29.98 in
(1015 mb)
S 6.9 mph
(S 11 kph)
- 10SM
20:15
Mostly Cloudy
72°F / 22°C 64°F / 18°C 78% 29.98 in
(1015 mb)
S 8.1 mph
(S 13 kph)
- 10SM
19:55
Mostly Cloudy
72°F / 22°C 64°F / 18°C 78% 29.98 in
(1015 mb)
S 9.2 mph
(S 15 kph)
- 10SM
19:35
Mostly Cloudy
72°F / 22°C 63°F / 17°C 73% 29.98 in
(1015 mb)
S 6.9 mph
(S 11 kph)
- 10SM
19:15
Mostly Cloudy
72°F / 22°C 63°F / 17°C 73% 29.98 in
(1015 mb)
S 6.9 mph
(S 11 kph)
- 10SM
18:55
Mostly Cloudy
73°F / 23°C 63°F / 17°C 69% 29.98 in
(1015 mb)
S 5.8 mph
(S 9 kph)
- 10SM
18:35
Partly Cloudy
73°F / 23°C 63°F / 17°C 69% 29.98 in
(1015 mb)
S 8.1 mph
(S 13 kph)
- 10SM
18:15
Partly Cloudy
73°F / 23°C 63°F / 17°C 69% 29.98 in
(1015 mb)
S 5.8 mph
(S 9 kph)
- 10SM
17:55
Partly Cloudy
75°F / 24°C 63°F / 17°C 65% 29.98 in
(1015 mb)
S 9.2 mph
(S 15 kph)
- 10SM
17:35
Clear
75°F / 24°C 63°F / 17°C 65% 29.98 in
(1015 mb)
S 11.5 mph
(S 19 kph)
- 10SM
16:47
Mostly Cloudy
77°F / 25°C 63°F / 17°C 61% 29.98 in
(1015 mb)
S 13.8 mph
(S 22 kph)
- 10SM
15:50
Overcast
77°F / 25°C 63°F / 17°C 61% 29.98 in
(1015 mb)
S 11.5 mph
(S 19 kph)
- 10SM
14:47
Overcast
75°F / 24°C 63°F / 17°C 65% 29.98 in
(1015 mb)
S 17.3 mph
(S 28 kph)
- 10SM
13:50
Overcast
75°F / 24°C 63°F / 17°C 65% 29.98 in
(1015 mb)
S 13.8 mph
(S 22 kph)
- 10SM
12:50
Mostly Cloudy
77°F / 25°C 61°F / 16°C 57% 30.01 in
(1016 mb)
SSE 17.3 mph
(SSE 28 kph)
- 10SM
11:50
Mostly Cloudy
77°F / 25°C 63°F / 17°C 61% 30.04 in
(1017 mb)
SSE 17.3 mph
(SSE 28 kph)
- 10SM
10:50
Mostly Cloudy
73°F / 23°C 61°F / 16°C 65% 30.06 in
(1018 mb)
SSE 20.7 mph
(SSE 33 kph)
- 10SM
09:50
Mostly Cloudy
70°F / 21°C 63°F / 17°C 78% 30.09 in
(1019 mb)
SE 12.7 mph
(SE 20 kph)
- 10SM
08:55
Mostly Cloudy
66°F / 19°C 63°F / 17°C 88% 30.09 in
(1019 mb)
SE 10.4 mph
(SE 17 kph)
- 10SM
07:50
Mostly Cloudy
63°F / 17°C 61°F / 16°C 94% 30.09 in
(1019 mb)
SE 6.9 mph
(SE 11 kph)
- 10SM
07:15
Partly Cloudy
61°F / 16°C 61°F / 16°C 100% 30.09 in
(1019 mb)
SE 4.6 mph
(SE 7 kph)
- 10SM
06:55
Partly Cloudy
61°F / 16°C 61°F / 16°C 100% 30.09 in
(1019 mb)
SE 5.8 mph
(SE 9 kph)
- 10SM
06:35
Clear
61°F / 16°C 61°F / 16°C 100% 30.09 in
(1019 mb)
SE 6.9 mph
(SE 11 kph)
- 10SM
06:15
Clear
61°F / 16°C 61°F / 16°C 100% 30.09 in
(1019 mb)
SE 5.8 mph
(SE 9 kph)
- 10SM
05:55
Clear
61°F / 16°C 61°F / 16°C 100% 30.09 in
(1019 mb)
ESE 5.8 mph
(ESE 9 kph)
- 10SM
05:35
Clear
61°F / 16°C 61°F / 16°C 100% 30.06 in
(1018 mb)
SE 6.9 mph
(SE 11 kph)
- 10SM
05:15
Clear
61°F / 16°C 61°F / 16°C 100% 30.06 in
(1018 mb)
ESE 6.9 mph
(ESE 11 kph)
- 10SM
04:55
Clear
61°F / 16°C 61°F / 16°C 100% 30.09 in
(1019 mb)
ESE 5.8 mph
(ESE 9 kph)
- 10SM
04:35
Clear
61°F / 16°C 61°F / 16°C 100% 30.09 in
(1019 mb)
E 4.6 mph
(E 7 kph)
- 10SM
04:15
Partly Cloudy
61°F / 16°C 61°F / 16°C 100% 30.09 in
(1019 mb)
E 5.8 mph
(E 9 kph)
- 10SM
03:55
Partly Cloudy
63°F / 17°C 63°F / 17°C 100% 30.09 in
(1019 mb)
SE 4.6 mph
(SE 7 kph)
- 10SM
03:35
Clear
63°F / 17°C 63°F / 17°C 100% 30.09 in
(1019 mb)
SE 5.8 mph
(SE 9 kph)
- 10SM
03:15
Clear
63°F / 17°C 63°F / 17°C 100% 30.09 in
(1019 mb)
SE 6.9 mph
(SE 11 kph)
- 10SM
02:55
Clear
63°F / 17°C 63°F / 17°C 100% 30.12 in
(1020 mb)
SE 6.9 mph
(SE 11 kph)
- 10SM
02:35
Clear
63°F / 17°C 63°F / 17°C 100% 30.12 in
(1020 mb)
SE 6.9 mph
(SE 11 kph)
- 10SM
02:15
Partly Cloudy
63°F / 17°C 63°F / 17°C 100% 30.12 in
(1020 mb)
SE 8.1 mph
(SE 13 kph)
- 10SM
01:55
Mostly Cloudy
63°F / 17°C 63°F / 17°C 100% 30.12 in
(1020 mb)
SE 5.8 mph
(SE 9 kph)
- 10SM
01:35
Mostly Cloudy
63°F / 17°C 63°F / 17°C 100% 30.12 in
(1020 mb)
SE 5.8 mph
(SE 9 kph)
- 10SM
01:15
Mostly Cloudy
63°F / 17°C 63°F / 17°C 100% 30.12 in
(1020 mb)
SE 5.8 mph
(SE 9 kph)
- 10SM
00:55
Overcast
64°F / 18°C 61°F / 16°C 88% 30.15 in
(1021 mb)
SE 5.8 mph
(SE 9 kph)
- 10SM
00:35
Overcast
64°F / 18°C 61°F / 16°C 88% 30.15 in
(1021 mb)
SE 6.9 mph
(SE 11 kph)
- 10SM
00:15
Overcast
64°F / 18°C 61°F / 16°C 88% 30.15 in
(1021 mb)
SE 6.9 mph
(SE 11 kph)
- 10SM
Time Weather Temperature Dewpoint Humidity Pressure Winds Precip Visibility


Weather for websites

WeatherForYou.com, LLC is not responsible for any damages or problems caused by this service. Current weather conditions are obtained from the closest station including government and personal stations which may have varying degrees of accuracy. Weather forecasts are derived from the NOAA NDFD. Like all things, this site belongs to Jesus Christ... He just trusts me to maintain it. If you have any questions or comments email webmaster@weatherforyou.com

Copyright © 2015, WeatherForYou.com LLC. All rights reserved.